Lawton, OK

8:30 AM CDT on April 24, 2017 (GMT -0500)
Lawton-Fort Sill Regional

Weather History for KLAW - April, 2013

Change the Weather History Date:

Wednesday, April 3, 2013

  Actual Average Record
Temperature  
Mean Temperature 41 °F -  
Max Temperature 43 °F 72 °F 99 °F (2011)
Min Temperature 39 °F 47 °F 24 °F (1975)
Degree Days  
Heating Degree Days 24    
Moisture  
Dew Point 38 °F    
Average Humidity 91    
Maximum Humidity 93    
Minimum Humidity 86    
Precipitation  
Precipitation 0.56 in - - ()
Sea Level Pressure  
Sea Level Pressure 30.15 in    
Wind  
Wind Speed 14 mph (NNE)    
Max Wind Speed 17 mph    
Max Gust Speed 21 mph    
Visibility 6 miles    
Events Rain , Thunderstorm    
Averages and records for this station are not official NWS values.
T = Trace of Precipitation, MM = Missing Value Source: NWS Daily Summary

Daily Weather History Graph

Daily Weather History Graph

Search for Another Location

Airport or City:

Trip Planner

Search our weather history database for the weather conditions in past years. The results will help you decide how hot, cold, wet, or windy it might be!

Date:

Astronomy

Apr. 03, 2013 Rise Set
Actual Time 7:17 AM CDT 7:56 PM CDT
Civil Twilight 6:52 AM CDT 8:22 PM CDT
Nautical Twilight 6:22 AM CDT 8:51 PM CDT
Astronomical Twilight 5:51 AM CDT 9:22 PM CDT
Moon 2:43 AM CDT (4/3) 1:25 PM CDT (4/3)
Length of Visible Light 13h 29m
Length of Day
12h 38m
Last Quarter, 44% of the Moon is Illuminated
Apr 3
Last Quarter
Apr 10
New
Apr 18
First Quarter
Apr 25
Full
May 2
Last Quarter

Hourly Weather History & Observations

Time (CDT) Temp. Windchill Dew Point Humidity Pressure Visibility Wind Dir Wind Speed Gust Speed Precip Events Conditions
12:14 AM 42.8 °F 34.8 °F 39.2 °F 87% 30.09 in 7.0 mi NNE 17.3 mph - 0.00 in Rain Light Rain
12:53 AM 42.1 °F 34.5 °F 39.0 °F 89% 30.09 in 8.0 mi NNE 15.0 mph - 0.00 in Rain Light Rain
1:53 AM 42.1 °F 34.2 °F 39.0 °F 89% 30.09 in 9.0 mi NNE 16.1 mph - 0.00 in Rain Light Rain
2:00 AM 42.8 °F 36.6 °F 39.2 °F 87% 30.10 in 6.0 mi North 11.5 mph - 0.00 in Rain Light Rain
2:20 AM 42.8 °F 34.8 °F 39.2 °F 87% 30.10 in 6.0 mi North 17.3 mph - 0.02 in Rain , Thunderstorm Thunderstorms and Rain
2:35 AM 41.0 °F 33.5 °F 39.2 °F 93% 30.10 in 4.0 mi North 13.8 mph - 0.06 in Rain Heavy Rain
2:53 AM 42.1 °F 34.5 °F 39.0 °F 89% 30.12 in 7.0 mi North 15.0 mph - 0.07 in Rain Light Rain
3:50 AM 41.0 °F 33.9 °F 39.2 °F 93% 30.10 in 10.0 mi North 12.7 mph - 0.01 in   Overcast
3:53 AM 41.0 °F 33.1 °F 39.0 °F 93% 30.11 in 10.0 mi North 15.0 mph - 0.01 in   Overcast
4:06 AM 41.0 °F 32.8 °F 39.2 °F 93% 30.10 in 10.0 mi North 16.1 mph - N/A   Overcast
4:53 AM 41.0 °F 32.8 °F 37.9 °F 89% 30.11 in 10.0 mi North 16.1 mph - N/A   Overcast
5:01 AM 41.0 °F 32.5 °F 37.4 °F 87% 30.09 in 10.0 mi NNE 17.3 mph - N/A   Overcast
5:49 AM 41.0 °F 32.8 °F 37.4 °F 87% 30.11 in 6.0 mi North 16.1 mph - 0.04 in Rain Rain
5:53 AM 41.0 °F 33.9 °F 37.9 °F 89% 30.12 in 6.0 mi North 12.7 mph - 0.04 in Rain Rain
6:08 AM 41.0 °F 32.8 °F 37.4 °F 87% 30.10 in 10.0 mi NNE 16.1 mph - 0.00 in   Overcast
6:53 AM 41.0 °F 33.9 °F 37.9 °F 89% 30.13 in 9.0 mi NNE 12.7 mph - 0.01 in Rain Light Rain
7:12 AM 41.0 °F 32.8 °F 37.4 °F 87% 30.11 in 7.0 mi NNE 16.1 mph - 0.03 in Rain Light Rain
7:16 AM 41.0 °F 33.5 °F 37.4 °F 87% 30.11 in 8.0 mi NNE 13.8 mph - 0.03 in Rain , Thunderstorm Light Rain
7:34 AM 41.0 °F 33.9 °F 37.4 °F 87% 30.11 in 9.0 mi NNE 12.7 mph - 0.03 in Rain Light Rain
7:53 AM 41.0 °F 33.5 °F 37.9 °F 89% 30.14 in 3.0 mi NNE 13.8 mph - 0.08 in Rain Heavy Rain
8:00 AM 41.0 °F 34.3 °F 39.2 °F 93% 30.13 in 4.0 mi NNE 11.5 mph - 0.01 in Rain Rain
8:41 AM 41.0 °F 34.3 °F 39.2 °F 93% 30.15 in 10.0 mi NNE 11.5 mph - 0.02 in   Overcast
8:53 AM 41.0 °F 34.7 °F 39.0 °F 93% 30.17 in 10.0 mi NNE 10.4 mph - 0.02 in   Overcast
9:53 AM 42.1 °F 35.2 °F 39.0 °F 89% 30.17 in 3.0 mi NNE 12.7 mph - N/A   Overcast
10:53 AM 42.1 °F 35.2 °F 39.0 °F 89% 30.19 in 5.0 mi NNE 12.7 mph - N/A   Overcast
11:35 AM 42.8 °F 35.8 °F 39.2 °F 87% 30.17 in 2.0 mi NNE 13.8 mph - N/A   Overcast
11:53 AM 43.0 °F 37.2 °F 39.9 °F 89% 30.18 in 2.5 mi NNE 10.4 mph - N/A   Overcast
12:53 PM 42.1 °F 34.9 °F 39.9 °F 92% 30.19 in 2.5 mi NNE 13.8 mph - N/A   Overcast
1:22 PM 42.8 °F 35.8 °F 39.2 °F 87% 30.16 in 1.8 mi NNE 13.8 mph - N/A   Overcast
1:34 PM 42.8 °F 35.1 °F 39.2 °F 87% 30.16 in 2.0 mi NE 16.1 mph - N/A   Overcast
1:51 PM 41.0 °F 33.5 °F 39.2 °F 93% 30.16 in 3.0 mi NE 13.8 mph - N/A   Overcast
1:53 PM 42.1 °F 35.2 °F 39.0 °F 89% 30.18 in 3.0 mi NNE 12.7 mph - N/A   Overcast
2:44 PM 41.0 °F 33.9 °F 37.4 °F 87% 30.16 in 1.8 mi NE 12.7 mph - N/A   Overcast
2:53 PM 41.0 °F 34.3 °F 39.0 °F 93% 30.18 in 1.2 mi NE 11.5 mph - 0.00 in Rain Light Rain
3:20 PM 39.2 °F 31.2 °F 37.4 °F 93% 30.15 in 2.5 mi North 13.8 mph - 0.00 in Rain Light Rain
3:31 PM 39.2 °F 31.6 °F 37.4 °F 93% 30.16 in 3.0 mi North 12.7 mph - 0.00 in   Overcast
3:45 PM 39.2 °F 31.6 °F 37.4 °F 93% 30.17 in 3.0 mi NNE 12.7 mph - 0.00 in Thunderstorm Overcast
3:53 PM 39.9 °F 32.1 °F 37.0 °F 89% 30.19 in 4.0 mi NNE 13.8 mph - 0.00 in Thunderstorm Overcast
3:55 PM 39.2 °F 30.8 °F 37.4 °F 93% 30.17 in 4.0 mi NE 15.0 mph - N/A   Overcast
3:59 PM 39.2 °F 31.6 °F 37.4 °F 93% 30.16 in 2.5 mi NE 12.7 mph - 0.00 in Rain Light Rain
4:05 PM 39.2 °F 32.5 °F 37.4 °F 93% 30.17 in 1.8 mi NE 10.4 mph - 0.00 in Rain , Thunderstorm Light Rain
4:13 PM 39.2 °F 31.2 °F 37.4 °F 93% 30.16 in 2.0 mi NE 13.8 mph - 0.00 in Rain , Thunderstorm Light Rain
4:30 PM 39.2 °F 30.8 °F 37.4 °F 93% 30.15 in 1.2 mi NE 15.0 mph - 0.15 in Rain , Thunderstorm Heavy Thunderstorms and Rain
4:40 PM 39.2 °F 32.0 °F 37.4 °F 93% 30.16 in 2.0 mi NNE 11.5 mph - 0.18 in Rain , Thunderstorm Thunderstorms and Rain
4:46 PM 39.2 °F 31.2 °F 37.4 °F 93% 30.15 in 4.0 mi NE 13.8 mph - 0.18 in Rain , Thunderstorm Light Rain
4:53 PM 39.9 °F 31.8 °F 37.0 °F 89% 30.16 in 6.0 mi NNE 15.0 mph 20.7 mph 0.18 in Rain , Thunderstorm Light Rain
5:06 PM 39.2 °F 31.6 °F 37.4 °F 93% 30.15 in 9.0 mi NE 12.7 mph - 0.00 in Rain Light Rain
5:14 PM 39.2 °F 33.6 °F 37.4 °F 93% 30.16 in 6.0 mi NE 8.1 mph - 0.01 in Rain Light Rain
5:27 PM 39.2 °F 33.6 °F 37.4 °F 93% 30.17 in 2.5 mi NE 8.1 mph - 0.03 in Rain Rain
5:34 PM 39.2 °F 31.6 °F 37.4 °F 93% 30.18 in 1.8 mi NE 12.7 mph - 0.05 in Rain Rain
5:42 PM 39.2 °F 33.0 °F 37.4 °F 93% 30.18 in 2.5 mi NE 9.2 mph - 0.06 in Rain Rain
5:47 PM 39.2 °F 33.0 °F 37.4 °F 93% 30.18 in 3.0 mi NE 9.2 mph - 0.07 in Rain Rain
5:53 PM 39.0 °F 32.3 °F 37.0 °F 93% 30.19 in 3.0 mi NE 10.4 mph - 0.08 in Rain Rain
6:07 PM 39.2 °F 31.6 °F 37.4 °F 93% 30.17 in 5.0 mi NNE 12.7 mph - 0.00 in Rain Rain
6:21 PM 39.2 °F 32.0 °F 37.4 °F 93% 30.17 in 10.0 mi NE 11.5 mph - 0.00 in   Overcast
6:35 PM 39.2 °F 33.0 °F 37.4 °F 93% 30.18 in 8.0 mi NE 9.2 mph - 0.00 in Rain Light Rain
6:53 PM 39.0 °F 34.0 °F 37.0 °F 93% 30.20 in 2.5 mi NNE 6.9 mph - 0.02 in Rain Rain
7:02 PM 39.2 °F 33.0 °F 37.4 °F 93% 30.17 in 3.0 mi NNE 9.2 mph - 0.00 in Rain Light Rain
7:25 PM 39.2 °F 30.5 °F 37.4 °F 93% 30.15 in 5.0 mi NE 16.1 mph - 0.00 in Rain Light Rain
7:34 PM 39.2 °F 33.6 °F 37.4 °F 93% 30.15 in 6.0 mi NE 8.1 mph - 0.01 in Rain Rain
7:45 PM 39.2 °F 33.6 °F 35.6 °F 87% 30.16 in 5.0 mi NNE 8.1 mph - 0.04 in Rain Light Rain
7:53 PM 39.0 °F 31.8 °F 36.0 °F 89% 30.17 in 6.0 mi NNE 11.5 mph - 0.05 in Rain Rain
8:23 PM 39.2 °F 34.2 °F 35.6 °F 87% 30.16 in 10.0 mi NE 6.9 mph - 0.00 in   Overcast
8:53 PM 39.0 °F 34.0 °F 36.0 °F 89% 30.20 in 10.0 mi North 6.9 mph - 0.00 in   Overcast
9:53 PM 39.0 °F 34.0 °F 36.0 °F 89% 30.22 in 10.0 mi North 6.9 mph - N/A   Overcast
10:53 PM 39.0 °F 32.3 °F 36.0 °F 89% 30.24 in 10.0 mi North 10.4 mph - N/A   Overcast
11:53 PM 39.0 °F 32.8 °F 35.1 °F 86% 30.23 in 10.0 mi North 9.2 mph - N/A   Overcast